Location: Wingville
(42.9917°N, 90.4915°W)
Time: 09:41:11
(UTC+00:00)

UWE-3 - Visible Passes

Search period start: 30 June 2022 00:00
Search period end: 10 July 2022 00:00
Orbit: 581 x 679 km, 97.7° (Epoch: 29 June)

Date Brightness Start Highest point End Pass type
(mag) Time Alt. Az. Time Alt. Az. Time Alt. Az.
30 Jun ? 08:24:48 10° NE 08:27:40 17° E 08:30:34 10° SE visible
01 Jul ? 08:44:35 10° NE 08:48:20 28° E 08:52:09 10° SSE visible
02 Jul ? 09:04:45 10° NNE 09:08:56 45° E 09:13:14 10° S visible
03 Jul ? 09:25:07 10° NNE 09:29:30 77° ESE 09:33:59 10° S visible
04 Jul ? 08:11:24 10° ENE 08:13:17 12° E 08:15:11 10° ESE visible
04 Jul ? 09:45:39 10° N 09:49:59 64° WNW 09:54:27 10° SSW visible
05 Jul ? 08:30:40 10° NE 08:33:59 20° E 08:37:21 10° SE visible
06 Jul ? 08:50:37 10° NNE 08:54:38 33° E 08:58:43 10° SSE visible
07 Jul ? 09:10:51 10° NNE 09:15:13 55° E 09:19:40 10° S visible
08 Jul ? 09:31:16 10° NNE 09:35:44 90° NNW 09:40:17 10° SSW visible
09 Jul ? 08:16:58 10° NE 08:19:35 15° E 08:22:13 10° SE visible
09 Jul ? 09:51:51 10° N 09:56:13 55° WNW 10:00:40 10° SSW visible
